Theta_e
328 328 325 324 323 321 322 321 319 319 319 319 318 318 318 318 318 318 319 319 318 318 319 317 317 316 315 313 312 312 313 313 313 313 313 316 319 324 320 319 315 312 318
327 327 324 324 323 323 323 320 319 319 318 318 318 317 318 317 317 317 317 316 316 317 316 316 315 314 313 312 311 310 311 311 311 311 312 306 304 307 318 317 315 315 316
326 324 324 324 325 324 323 320 318 318 317 318 317 317 317 316 317 316 315 314 314 313 314 314 314 313 311 310 309 308 308 308 308 309 302 301 303 311 319 316 315 316 318
324 323 324 325 324 323 321 319 317 318 317 317 316 316 316 316 316 314 313 312 311 311 312 312 311 311 309 308 307 306 306 305 306 305 297 301 311 316 318 316 314 316 316
325 325 325 324 322 320 318 317 316 316 316 315 315 315 314 314 313 312 310 310 308 308 309 309 308 307 306 305 305 305 304 304 305 298 297 301 315 314 316 315 313 315 314
325 325 322 321 320 318 317 316 315 315 314 312 312 312 312 310 309 309 307 307 306 306 305 305 305 304 304 304 304 304 304 304 303 298 299 303 316 317 317 314 313 313 313
323 322 319 318 318 317 316 315 315 309 307 307 307 308 309 308 307 307 306 306 306 304 304 303 303 303 303 303 303 304 304 304 303 297 301 310 312 314 314 314 314 313 312
320 319 318 318 316 315 314 311 307 307 308 308 308 308 308 307 306 306 306 305 305 304 304 303 303 302 303 302 302 302 302 303 300 296 298 301 305 307 310 311 312 312 312
319 318 316 312 314 309 308 309 309 309 309 309 309 309 310 309 308 308 307 306 306 304 304 304 303 302 301 301 301 299 300 301 297 296 296 296 303 303 305 306 307 309 310
316 313 313 313 311 309 309 310 310 310 309 309 309 310 307 306 306 306 306 306 306 305 304 305 301 301 300 299 298 298 298 298 296 296 296 296 301 302 303 303 304 305 307
315 314 314 313 311 311 310 309 311 310 311 310 309 308 306 305 303 303 302 303 302 302 302 301 300 299 299 296 296 297 297 296 296 296 295 296 299 301 302 302 303 303 304
312 310 310 310 310 311 311 310 310 310 310 309 307 306 303 301 300 299 299 299 298 298 297 297 297 296 296 296 295 295 295 295 296 296 296 296 297 299 300 301 301 301 302
310 309 309 311 311 311 310 308 307 307 307 306 304 301 300 300 298 296 295 295 295 296 295 295 295 295 295 294 294 294 294 294 294 296 295 296 296 298 299 300 300 300 301
308 309 310 310 310 310 306 306 304 304 304 303 301 299 298 297 296 295 294 294 295 294 293 293 294 295 294 294 293 293 294 294 294 294 294 294 296 296 297 299 300 300 300
309 309 309 308 307 306 305 305 304 303 301 299 298 297 297 295 294 294 293 293 294 293 293 293 294 294 293 293 293 293 293 293 293 293 293 293 294 295 295 296 299 300 300
308 308 307 307 306 306 304 304 304 302 300 298 297 297 295 294 293 293 293 293 293 293 292 293 293 293 292 292 293 293 293 293 293 292 292 293 293 294 295 296 298 298 299
307 307 305 302 302 304 298 299 302 299 298 297 296 295 294 294 293 293 293 293 293 292 292 292 292 292 292 293 293 292 292 293 292 293 292 293 293 294 294 295 295 295 297
306 304 302 302 300 298 297 296 296 297 297 296 294 294 294 293 293 293 293 293 293 292 292 291 291 291 291 292 292 292 293 292 292 292 292 292 293 292 292 292 293 295 296
305 303 302 301 298 296 296 296 295 295 295 295 294 293 293 293 292 293 292 292 291 290 289 290 290 291 291 290 290 290 291 291 292 292 292 291 291 291 291 291 292 292 293
304 301 301 300 298 295 295 295 295 295 294 294 293 292 292 291 291 291 291 290 289 289 289 289 289 289 289 289 288 289 289 290 291 291 291 291 291 291 291 291 291 290 291
302 301 300 299 297 295 294 294 294 294 294 293 293 292 292 291 291 290 290 290 289 288 288 289 288 288 288 288 288 288 289 290 290 290 289 290 291 291 290 291 290 291 291
301 301 299 298 297 295 294 294 294 293 293 292 292 292 292 291 291 291 291 290 289 288 288 288 288 288 288 287 287 287 286 288 290 288 290 289 289 289 289 289 289 290 290
301 300 299 297 296 295 294 294 293 293 293 292 292 292 292 292 291 291 290 290 288 288 288 288 288 287 287 287 287 286 287 289 288 289 288 289 288 288 288 288 288 289 289
302 300 298 296 295 295 294 293 293 293 293 292 292 292 292 292 291 290 291 289 289 288 288 288 288 287 287 286 287 288 287 287 288 287 288 287 288 288 287 287 287 287 287
302 299 297 295 295 294 294 293 293 293 293 293 292 292 292 291 291 290 289 288 288 288 288 288 287 287 287 286 287 287 286 286 286 285 286 285 287 286 286 285 285 285 286
300 298 296 295 294 294 293 293 293 293 293 293 292 292 291 290 290 289 288 288 288 288 288 288 288 287 287 286 284 284 284 284 285 285 286 286 285 286 285 285 285 285 286
Wind_Speed
17 15 12 11 12 9 11 12 13 12 12 13 13 13 13 14 14 14 14 14 15 15 15 15 16 16 17 17 18 19 20 21 20 19 17 14 10 8 3 3 4 5 6
21 16 12 11 11 11 12 12 12 11 12 12 12 12 13 13 13 14 15 15 15 15 16 16 16 17 18 18 18 19 20 20 21 20 18 12 12 10 6 1 3 5 5
21 16 14 13 12 12 13 13 11 11 11 11 12 12 12 12 12 13 14 15 15 16 17 17 17 18 18 19 20 20 20 21 21 22 17 16 17 9 8 4 1 3 4
20 18 15 15 13 14 13 12 11 11 11 11 11 12 12 12 12 13 14 15 16 17 17 18 18 19 20 20 20 21 22 23 23 22 21 18 14 1 6 5 1 2 4
19 19 17 15 14 13 10 9 10 10 10 11 11 11 11 12 12 12 13 14 17 19 17 17 17 18 19 20 20 20 20 22 23 24 22 16 14 5 4 4 4 2 1
21 19 16 14 13 11 10 9 9 9 9 10 10 10 10 11 12 11 13 12 16 18 17 17 16 18 18 18 18 19 20 22 21 28 21 10 10 4 2 2 3 2 1
21 18 16 15 13 11 9 8 8 8 8 10 12 11 10 10 10 9 10 12 14 16 17 16 16 17 18 18 19 20 21 19 21 23 17 12 13 8 5 4 3 1 0
20 18 15 12 10 10 8 7 8 7 9 10 12 12 12 11 10 9 8 13 13 14 16 16 17 18 18 20 19 19 18 17 20 23 17 15 11 10 8 7 5 4 3
14 13 12 13 10 10 8 8 7 6 6 8 10 11 11 10 11 12 12 15 14 13 17 15 16 17 19 18 17 20 19 17 21 23 19 15 9 10 9 9 9 9 5
16 16 15 12 10 11 11 8 6 6 3 4 6 9 9 9 11 15 15 17 15 15 20 13 12 15 15 17 18 19 18 20 20 22 18 16 12 14 11 11 11 12 13
16 15 11 7 4 3 9 12 10 10 6 4 5 5 8 12 14 14 14 18 19 19 18 14 14 14 15 17 18 20 20 23 20 20 18 15 15 14 13 14 13 13 15
21 18 14 9 9 9 10 14 14 6 1 2 3 6 12 16 19 19 19 19 19 19 16 17 17 18 18 19 19 19 20 22 18 19 17 17 17 15 15 14 15 14 15
20 16 11 9 9 10 13 16 15 14 10 7 6 11 15 19 22 23 23 20 24 20 23 24 21 19 18 17 17 18 19 20 21 17 16 17 17 16 16 16 14 14 15
20 16 13 12 10 9 13 11 12 14 11 8 9 13 17 20 22 22 25 20 23 23 26 25 21 19 16 17 20 21 21 20 20 17 14 14 15 16 15 17 16 14 15
20 16 15 14 12 12 12 11 14 13 10 6 8 13 17 20 22 22 26 18 22 24 25 23 22 16 21 22 22 21 21 20 21 18 18 19 19 17 18 18 15 14 12
18 16 13 13 13 11 14 10 8 9 6 7 11 13 16 21 21 21 24 18 20 24 22 23 21 24 24 21 21 23 24 22 19 22 21 20 18 18 15 12 12 14 14
19 16 13 16 17 11 14 17 10 11 6 8 10 14 17 17 17 19 20 17 18 20 19 23 25 25 24 22 21 22 23 21 23 22 21 19 17 9 8 11 14 16 15
17 16 15 13 15 15 16 16 16 13 9 7 13 14 16 18 17 18 18 17 18 17 20 23 24 24 25 24 23 21 21 22 21 19 19 19 12 11 8 8 9 10 11
12 14 14 14 14 15 15 15 14 18 17 14 15 18 19 16 17 17 16 14 16 21 23 21 24 23 22 23 22 22 21 23 20 21 15 13 10 6 8 6 5 7 8
9 15 13 14 15 13 14 15 14 17 19 15 17 20 18 20 17 16 15 19 24 26 23 23 21 21 23 23 26 24 22 21 17 17 13 16 13 11 9 9 9 9 9
15 14 13 13 15 18 18 17 17 17 16 17 19 21 20 22 18 19 20 24 27 28 22 21 24 24 23 25 23 22 20 14 18 13 22 16 13 10 7 14 11 10 10
14 14 11 11 14 16 16 15 14 15 16 18 18 19 19 18 20 21 23 24 26 22 21 22 22 22 21 23 18 14 4 13 4 27 12 16 8 11 9 9 9 8 9
13 12 9 9 11 12 13 14 16 17 15 19 19 23 23 19 21 20 24 21 24 20 20 21 20 19 19 24 22 8 3 2 8 7 19 7 19 17 14 12 11 10 10
13 11 9 9 10 10 12 13 14 14 13 17 17 22 20 18 19 22 19 23 21 20 21 20 19 19 19 21 20 9 17 14 3 5 4 18 12 15 15 14 15 15 16
12 11 9 8 9 9 12 12 13 15 14 16 17 20 19 19 20 21 22 22 21 22 22 22 20 20 20 18 13 18 18 19 18 8 10 6 15 15 18 17 17 17 16
16 12 7 8 8 9 12 12 12 14 15 16 18 19 20 21 21 22 22 21 23 23 24 23 21 22 20 15 18 22 24 18 13 8 5 10 9 15 14 18 15 13 12
Wind_Direction
142 141 140 131 120 112 105 97 88 84 76 71 65 60 54 50 44 38 37 34 24 16 15 11 10 10 10 8 3 1 358 355 353 353 350 342 331 316 328 17 18 26 48
140 139 138 133 120 118 114 98 91 84 77 69 62 58 51 45 43 41 34 23 16 11 5 5 5 5 4 2 360 359 355 351 347 349 347 344 345 315 277 292 43 54 63
140 135 131 125 119 116 105 95 89 80 75 68 64 55 48 44 45 36 25 23 17 10 6 3 360 359 357 356 356 355 351 348 346 346 344 350 352 328 199 221 80 74 77
137 134 138 125 118 106 96 92 88 77 69 60 55 51 44 42 38 30 27 23 18 11 5 0 356 352 352 351 350 351 351 350 347 346 342 356 5 66 188 228 232 126 121
136 131 123 118 109 105 99 94 83 75 66 58 52 49 46 44 38 36 29 26 17 8 359 355 353 349 347 346 348 352 353 352 350 354 350 1 21 154 197 223 239 156 93
130 126 119 110 110 103 99 89 80 73 65 55 46 43 43 41 35 30 27 22 11 7 4 355 358 356 357 354 355 354 353 352 354 355 359 13 43 57 116 140 190 220 357
124 120 114 110 108 109 110 104 99 78 64 52 45 44 38 32 26 17 7 6 1 3 2 2 2 356 357 355 352 349 346 350 349 357 17 40 26 18 8 346 350 51 46
124 118 115 114 108 106 105 90 72 65 60 56 50 38 24 12 360 351 337 340 345 347 354 355 351 353 349 345 344 347 346 345 344 357 15 7 3 4 4 349 347 359 330
125 126 111 104 95 90 67 60 57 54 49 52 46 32 5 3 356 342 318 331 328 334 341 335 339 342 345 344 343 342 342 340 338 338 347 356 344 344 339 339 331 323 303
118 110 104 95 78 56 34 11 1 355 3 41 37 23 357 21 4 9 360 357 348 335 327 310 329 337 346 342 334 333 329 327 330 335 332 342 326 316 315 319 319 313 306
115 111 106 94 65 42 21 3 324 312 310 327 9 13 7 12 4 356 1 1 357 354 358 3 353 347 345 347 341 334 327 319 311 324 332 327 322 315 310 309 314 309 302
117 111 114 105 70 58 32 13 24 52 45 33 48 7 14 10 7 354 348 350 356 10 8 359 350 341 337 343 336 334 338 338 312 303 314 320 317 304 302 306 301 302 301
114 102 94 79 63 59 38 30 52 53 54 70 48 30 15 1 350 351 355 359 5 1 358 353 349 345 343 346 345 337 339 340 343 322 308 313 311 305 302 299 300 297 298
109 98 86 74 64 52 42 34 31 24 50 75 33 13 4 3 1 359 354 351 3 3 355 352 348 345 345 338 335 331 327 331 334 335 333 322 310 303 299 300 296 291 291
95 84 77 71 61 42 14 16 7 4 13 33 19 12 5 4 4 360 357 355 0 358 354 347 344 356 349 342 336 332 327 326 329 324 324 316 309 295 295 291 292 298 288
93 84 79 55 31 23 13 355 347 7 29 29 11 5 5 3 5 358 1 359 359 354 349 352 354 345 339 336 332 330 331 328 335 329 323 314 312 301 290 293 291 299 306
92 81 58 53 38 42 54 52 48 26 26 8 9 13 12 13 6 5 4 354 349 346 343 338 337 335 334 332 329 329 325 327 329 328 337 324 317 295 275 276 282 285 285
99 80 73 46 56 49 44 41 40 36 21 34 23 25 19 7 4 359 356 353 350 352 345 341 341 345 343 340 337 333 327 326 326 331 338 329 305 294 292 292 289 287 307
96 100 77 52 43 45 41 32 31 33 50 46 51 29 19 17 3 358 2 2 356 348 347 350 345 348 350 350 346 337 331 328 323 324 338 342 349 18 357 344 330 319 314
101 104 77 58 44 31 27 25 32 45 39 43 30 19 19 13 8 1 6 359 356 353 350 349 356 354 349 350 345 336 331 323 313 326 320 325 335 330 331 329 332 328 323
122 97 74 52 42 28 23 28 29 27 29 27 15 12 9 4 8 0 357 353 356 353 350 354 352 348 346 348 343 337 330 326 312 310 329 320 319 326 318 288 312 315 313
119 104 86 62 37 32 31 29 21 17 24 16 12 11 3 4 6 355 352 353 355 352 348 347 347 343 338 342 336 322 328 315 300 326 313 318 334 337 332 329 319 311 302
121 110 94 70 49 42 34 24 22 19 19 10 11 4 1 358 352 348 344 349 352 348 343 342 341 338 329 335 338 314 324 290 311 303 308 279 327 313 317 319 308 299 302
115 117 98 77 58 51 35 28 28 18 12 4 355 356 352 354 351 349 347 347 346 342 339 337 332 329 328 328 332 331 318 304 305 307 280 298 282 297 303 299 291 289 287
117 115 97 76 67 55 36 25 21 11 358 351 350 350 355 355 353 351 347 344 342 342 338 330 322 324 325 324 322 316 314 305 287 247 296 286 286 289 292 293 291 284 276
113 106 105 95 77 51 31 17 14 6 355 349 352 354 356 354 353 350 349 345 343 341 336 331 324 318 312 307 314 306 295 291 276 257 272 280 270 283 282 299 291 281 283